﻿_id,日時,平均風速(m/s),平均風向,最大瞬間風速(m/s),最大風速時風向,気温(℃),湿度(%),10分間移動積算雨量(mm),1時間移動積算雨量(mm),日雨量(mm),累計雨量(mm)
1,2021-08-16T00:00:00,1.4,北北西,2.2,北北西,21,97.6,0,0,38,279
2,2021-08-16T00:01:00,1.5,北北西,2.2,北北西,21,97.6,0,0,0,279
3,2021-08-16T00:02:00,1.5,北北西,2.2,北北西,21,97.6,0,0,0,279
4,2021-08-16T00:03:00,1.5,北北西,2.2,北北西,20.9,97.6,0,0,0,279
5,2021-08-16T00:04:00,1.4,北北西,2.2,北北西,21,97.6,0,0,0,279
6,2021-08-16T00:05:00,1.3,北北西,2.2,北北西,20.9,97.5,0,0,0,279
7,2021-08-16T00:06:00,1.3,北西,2.2,北北西,20.9,97.5,0,0,0,279
8,2021-08-16T00:07:00,1.3,北西,2.1,北北西,20.9,97.5,0,0,0,279
9,2021-08-16T00:08:00,1.3,北西,2,北北西,20.9,97.5,0,0,0,279
10,2021-08-16T00:09:00,1.3,北西,2,北北西,20.8,97.5,0,0,0,279
11,2021-08-16T00:10:00,1.3,北西,2,北北西,20.8,97.4,0,0,0,279
12,2021-08-16T00:11:00,1.3,北西,2.1,北西,20.8,97.5,0,0,0,279
13,2021-08-16T00:12:00,1.3,北西,2.1,北西,20.8,97.5,0,0,0,279
14,2021-08-16T00:13:00,1.4,北西,2.1,北西,20.8,97.5,0,0,0,279
15,2021-08-16T00:14:00,1.4,北西,2.1,北西,20.8,97.5,0,0,0,279
16,2021-08-16T00:15:00,1.4,北西,2.2,北西,20.8,97.5,0,0,0,279
17,2021-08-16T00:16:00,1.4,北西,2.2,北西,20.8,97.5,0,0,0,279
18,2021-08-16T00:17:00,1.4,北西,2.2,北西,20.8,97.6,0,0,0,279
19,2021-08-16T00:18:00,1.5,北西,2.2,北西,20.8,97.6,0,0,0,279
20,2021-08-16T00:19:00,1.5,北西,2.3,北西,20.7,97.6,0,0,0,279
21,2021-08-16T00:20:00,1.6,北西,2.3,北西,20.8,97.6,0,0,0,279
22,2021-08-16T00:21:00,1.6,北西,2.3,北西,20.8,97.6,0,0,0,279
23,2021-08-16T00:22:00,1.6,北西,2.3,北西,20.7,97.6,0,0,0,279
24,2021-08-16T00:23:00,1.6,北西,2.3,北西,20.8,97.6,0,0,0,279
25,2021-08-16T00:24:00,1.7,北西,2.3,北西,20.7,97.6,0,0,0,279
26,2021-08-16T00:25:00,1.7,北西,2.3,北西,20.7,97.6,0,0,0,279
27,2021-08-16T00:26:00,1.7,北西,2.3,北西,20.7,97.6,0,0,0,279
28,2021-08-16T00:27:00,1.7,北西,2.3,北西,20.7,97.6,0,0,0,279
29,2021-08-16T00:28:00,1.7,北西,2.3,北西,20.7,97.6,0,0,0,279
30,2021-08-16T00:29:00,1.7,北西,2.3,北西,20.7,97.7,0,0,0,279
31,2021-08-16T00:30:00,1.7,北西,2.3,北西,20.8,97.7,0,0,0,279
32,2021-08-16T00:31:00,1.6,北西,2.3,北西,20.8,97.7,0,0,0,279
33,2021-08-16T00:32:00,1.6,北西,2.3,北西,20.7,97.7,0,0,0,279
34,2021-08-16T00:33:00,1.6,北西,2.3,北西,20.7,97.7,0,0,0,279
35,2021-08-16T00:34:00,1.7,北西,2.4,北北西,20.7,97.7,0,0,0,279
36,2021-08-16T00:35:00,1.7,北西,2.6,北,20.7,97.7,0,0,0,279
37,2021-08-16T00:36:00,1.7,北西,2.6,北,20.7,97.6,0,0,0,279
38,2021-08-16T00:37:00,1.6,北北西,2.6,北,20.7,97.6,0,0,0,279
39,2021-08-16T00:38:00,1.6,北北西,2.6,北,20.7,97.6,0,0,0,279
40,2021-08-16T00:39:00,1.5,北北西,2.6,北,20.7,97.7,0,0,0,279
41,2021-08-16T00:40:00,1.4,北北西,2.6,北,20.7,97.7,0,0,0,279
42,2021-08-16T00:41:00,1.4,北北西,2.6,北,20.7,97.7,0,0,0,279
43,2021-08-16T00:42:00,1.3,北北西,2.6,北,20.7,97.7,0,0,0,279
44,2021-08-16T00:43:00,1.3,北北西,2.6,北,20.7,97.7,0,0,0,279
45,2021-08-16T00:44:00,1.3,北北西,2.6,北,20.7,97.7,0,0,0,279
46,2021-08-16T00:45:00,1.2,北北西,2,北,20.7,97.7,0,0,0,279
47,2021-08-16T00:46:00,1.2,北北西,2.2,北西,20.7,97.7,0,0,0,279
48,2021-08-16T00:47:00,1.2,北北西,2.2,北西,20.7,97.6,0,0,0,279
49,2021-08-16T00:48:00,1.3,北北西,2.2,北西,20.7,97.7,0,0,0,279
50,2021-08-16T00:49:00,1.4,北北西,2.2,北西,20.7,97.7,0,0,0,279
51,2021-08-16T00:50:00,1.4,北西,2.2,北西,20.7,97.7,0,0,0,279
52,2021-08-16T00:51:00,1.4,北西,2.2,北西,20.7,97.7,0,0,0,279
53,2021-08-16T00:52:00,1.5,北西,2.2,北西,20.8,97.7,0,0,0,279
54,2021-08-16T00:53:00,1.4,北西,2.2,北西,20.8,97.7,0,0,0,279
55,2021-08-16T00:54:00,1.4,北西,2.2,北西,20.8,97.7,0,0,0,279
56,2021-08-16T00:55:00,1.4,北西,2.2,北西,20.8,97.7,0,0,0,279
57,2021-08-16T00:56:00,1.3,北西,2.2,北西,20.8,97.7,0,0,0,279
58,2021-08-16T00:57:00,1.2,北西,2.2,北西,20.8,97.6,0,0,0,279
59,2021-08-16T00:58:00,1.1,北西,2.2,北西,20.7,97.6,0,0,0,279
60,2021-08-16T00:59:00,1,北西,2,北西,20.7,97.6,0,0,0,279
61,2021-08-16T01:00:00,0.9,西北西,1.5,北西,20.8,97.6,0,0,0,279
62,2021-08-16T01:01:00,1,北西,1.9,北西,20.7,97.6,0,0,0,279
63,2021-08-16T01:02:00,1,北西,1.9,北西,20.7,97.5,0,0,0,279
64,2021-08-16T01:03:00,1.1,北西,2.3,北,20.7,97.6,0,0,0,279
65,2021-08-16T01:04:00,1.1,北西,2.3,北,20.7,97.6,0,0,0,279
66,2021-08-16T01:05:00,1.2,北西,2.3,北,20.7,97.6,0,0,0,279
67,2021-08-16T01:06:00,1.3,北西,2.3,北,20.8,97.7,0,0,0,279
68,2021-08-16T01:07:00,1.4,北西,2.3,北,20.8,97.6,0,0,0,279
69,2021-08-16T01:08:00,1.6,北北西,2.3,北,20.8,97.6,0,0,0,279
70,2021-08-16T01:09:00,1.7,北北西,2.3,北,20.8,97.6,0,0,0,279
71,2021-08-16T01:10:00,1.7,北北西,2.3,北,20.7,97.6,0,0,0,279
72,2021-08-16T01:11:00,1.7,北北西,2.3,北,20.7,97.6,0,0,0,279
73,2021-08-16T01:12:00,1.7,北西,2.3,北,20.7,97.6,0,0,0,279
74,2021-08-16T01:13:00,1.7,北西,2.3,北西,20.8,97.6,0,0,0,279
75,2021-08-16T01:14:00,1.7,北西,2.3,北西,20.7,97.6,0,0,0,279
76,2021-08-16T01:15:00,1.7,北西,2.4,北北西,20.7,97.5,0,0,0,279
77,2021-08-16T01:16:00,1.7,北西,2.4,北北西,20.7,97.5,0,0,0,279
78,2021-08-16T01:17:00,1.7,北西,2.4,北北西,20.6,97.5,0,0,0,279
79,2021-08-16T01:18:00,1.6,北西,2.4,北北西,20.6,97.5,0,0,0,279
80,2021-08-16T01:19:00,1.6,北北西,2.5,北北西,20.6,97.5,0,0,0,279
81,2021-08-16T01:20:00,1.6,北北西,2.5,北北西,20.7,97.6,0,0,0,279
82,2021-08-16T01:21:00,1.6,北北西,2.5,北北西,20.7,97.6,0,0,0,279
83,2021-08-16T01:22:00,1.6,北北西,2.5,北北西,20.7,97.6,0,0,0,279
84,2021-08-16T01:23:00,1.6,北北西,2.8,北西,20.7,97.6,0,0,0,279
85,2021-08-16T01:24:00,1.6,北北西,2.8,北西,20.8,97.7,0,0,0,279
86,2021-08-16T01:25:00,1.6,北北西,2.8,北西,20.8,97.7,0,0,0,279
87,2021-08-16T01:26:00,1.5,北北西,2.8,北西,20.8,97.7,0,0,0,279
88,2021-08-16T01:27:00,1.4,北北西,2.8,北西,20.8,97.6,0,0,0,279
89,2021-08-16T01:28:00,1.3,北北西,2.8,北西,20.8,97.6,0,0,0,279
90,2021-08-16T01:29:00,1.3,北西,2.8,北西,20.8,97.5,0,0,0,279
91,2021-08-16T01:30:00,1.2,北西,2.8,北西,20.8,97.5,0,0,0,279
92,2021-08-16T01:31:00,1.2,北西,2.8,北西,20.8,97.4,0,0,0,279
93,2021-08-16T01:32:00,1.2,北西,2.8,北西,20.8,97.4,0,0,0,279
94,2021-08-16T01:33:00,1.2,北西,2.4,北西,20.8,97.4,0,0,0,279
95,2021-08-16T01:34:00,1.2,北西,2.6,西,20.8,97.4,0,0,0,279
96,2021-08-16T01:35:00,1.3,北西,2.8,西,20.8,97.4,0,0,0,279
97,2021-08-16T01:36:00,1.4,西北西,2.8,西,20.8,97.4,0,0,0,279
98,2021-08-16T01:37:00,1.6,西北西,2.8,西,20.8,97.4,0,0,0,279
99,2021-08-16T01:38:00,1.6,西北西,2.8,西,20.8,97.4,0,0,0,279
100,2021-08-16T01:39:00,1.6,西北西,2.8,西,20.7,97.3,0,0,0,279
101,2021-08-16T01:40:00,1.5,西北西,2.8,西,20.7,97.3,0,0,0,279
102,2021-08-16T01:41:00,1.5,西北西,2.8,西,20.7,97.4,0,0,0,279
103,2021-08-16T01:42:00,1.4,西,2.8,西,20.7,97.4,0,0,0,279
104,2021-08-16T01:43:00,1.3,西北西,2.8,西,20.7,97.4,0,0,0,279
105,2021-08-16T01:44:00,1.2,西北西,2.8,西,20.7,97.4,0,0,0,279
106,2021-08-16T01:45:00,1.1,西北西,2.6,西,20.7,97.3,0,0,0,279
107,2021-08-16T01:46:00,1.1,西北西,2.5,西,20.6,97.3,0,0,0,279
108,2021-08-16T01:47:00,1,西北西,2.1,西北西,20.6,97.3,0,0,0,279
109,2021-08-16T01:48:00,0.9,西北西,1.7,北西,20.6,97.4,0,0,0,279
110,2021-08-16T01:49:00,1,西北西,1.8,西北西,20.6,97.4,0,0,0,279
111,2021-08-16T01:50:00,1,西北西,1.8,西北西,20.6,97.4,0,0,0,279
112,2021-08-16T01:51:00,1.1,北西,1.9,北西,20.5,97.3,0,0,0,279
113,2021-08-16T01:52:00,1.2,北西,1.9,北西,20.5,97.3,0,0,0,279
114,2021-08-16T01:53:00,1.3,北西,1.9,北西,20.5,97.4,0,0,0,279
115,2021-08-16T01:54:00,1.3,北西,1.9,北西,20.5,97.4,0,0,0,279
116,2021-08-16T01:55:00,1.4,北西,1.9,北西,20.5,97.5,0,0,0,279
117,2021-08-16T01:56:00,1.4,北西,1.9,北西,20.5,97.5,0,0,0,279
118,2021-08-16T01:57:00,1.4,北西,1.9,北西,20.5,97.5,0,0,0,279
119,2021-08-16T01:58:00,1.4,北西,2.1,西北西,20.5,97.6,0,0,0,279
120,2021-08-16T01:59:00,1.4,北西,2.1,西北西,20.5,97.6,0,0,0,279
121,2021-08-16T02:00:00,1.5,北西,2.1,西北西,20.5,97.6,0,0,0,279
122,2021-08-16T02:01:00,1.5,北西,2.3,西北西,20.5,97.6,0,0,0,279
123,2021-08-16T02:02:00,1.5,西北西,2.6,西北西,20.6,97.7,0,0,0,279
124,2021-08-16T02:03:00,1.6,西北西,2.6,西北西,20.6,97.7,0,0,0,279
125,2021-08-16T02:04:00,1.6,西北西,2.6,西北西,20.6,97.7,0,0,0,279
126,2021-08-16T02:05:00,1.6,北西,2.6,西北西,20.6,97.7,0,0,0,279
127,2021-08-16T02:06:00,1.6,北西,2.6,西北西,20.6,97.6,0,0,0,279
128,2021-08-16T02:07:00,1.7,北西,2.6,西北西,20.5,97.6,0,0,0,279
129,2021-08-16T02:08:00,1.7,北西,2.6,西北西,20.5,97.6,0,0,0,279
130,2021-08-16T02:09:00,1.8,北西,2.9,北,20.5,97.6,0,0,0,279
131,2021-08-16T02:10:00,1.8,北西,2.9,北,20.6,97.6,0,0,0,279
132,2021-08-16T02:11:00,1.9,北西,2.9,北,20.6,97.6,0,0,0,279
133,2021-08-16T02:12:00,1.9,北北西,2.9,北,20.6,97.6,0,0,0,279
134,2021-08-16T02:13:00,1.9,北北西,2.9,北,20.6,97.6,0,0,0,279
135,2021-08-16T02:14:00,2,北北西,2.9,北,20.6,97.6,0,0,0,279
136,2021-08-16T02:15:00,2,北北西,2.9,北,20.6,97.6,0,0,0,279
137,2021-08-16T02:16:00,2,北北西,2.9,北,20.6,97.6,0,0,0,279
138,2021-08-16T02:17:00,2,北北西,2.9,北,20.6,97.6,0,0,0,279
139,2021-08-16T02:18:00,2.1,北北西,2.9,北,20.6,97.6,0,0,0,279
140,2021-08-16T02:19:00,2.1,北北西,3.3,北西,20.6,97.6,0,0,0,279
141,2021-08-16T02:20:00,2,北北西,3.3,北西,20.6,97.6,0,0,0,279
142,2021-08-16T02:21:00,2,北北西,3.3,北西,20.7,97.6,0,0,0,279
143,2021-08-16T02:22:00,2,北北西,3.3,北西,20.7,97.6,0,0,0,279
144,2021-08-16T02:23:00,1.9,北北西,3.3,北西,20.6,97.6,0,0,0,279
145,2021-08-16T02:24:00,1.9,北西,3.3,北西,20.6,97.5,0,0,0,279
146,2021-08-16T02:25:00,1.9,北西,3.3,北西,20.6,97.5,0,0,0,279
147,2021-08-16T02:26:00,1.9,北西,3.3,北西,20.6,97.5,0,0,0,279
148,2021-08-16T02:27:00,1.9,北西,3.6,西北西,20.6,97.4,0,0,0,279
149,2021-08-16T02:28:00,1.8,北西,3.6,西北西,20.6,97.4,0,0,0,279
150,2021-08-16T02:29:00,1.6,北西,3.6,西北西,20.6,97.4,0,0,0,279
151,2021-08-16T02:30:00,1.5,北西,3.6,西北西,20.7,97.4,0,0,0,279
152,2021-08-16T02:31:00,1.5,北西,3.6,西北西,20.7,97.5,0,0,0,279
153,2021-08-16T02:32:00,1.4,北北西,3.6,西北西,20.8,97.4,0,0,0,279
154,2021-08-16T02:33:00,1.2,北北西,3.6,西北西,20.9,97.5,0,0,0,279
155,2021-08-16T02:34:00,1.1,北北西,3.6,西北西,20.8,97.3,0,0,0,279
156,2021-08-16T02:35:00,1,北北西,3.6,西北西,20.8,97.2,0,0,0,279
157,2021-08-16T02:36:00,0.9,北北西,3.6,西北西,20.7,97,0,0,0,279
158,2021-08-16T02:37:00,0.8,北北西,2.1,北西,20.6,96.9,0,0,0,279
159,2021-08-16T02:38:00,0.8,北北西,2.1,北西,20.5,96.8,0,0,0,279
160,2021-08-16T02:39:00,0.9,北北西,2.1,北西,20.5,96.8,0,0,0,279
161,2021-08-16T02:40:00,0.9,北北西,2.1,北西,20.5,96.8,0,0,0,279
162,2021-08-16T02:41:00,0.9,北北西,1.7,北,20.5,96.9,0,0,0,279
163,2021-08-16T02:42:00,1,北北西,1.7,北,20.5,97,0,0,0,279
164,2021-08-16T02:43:00,1,北北西,1.7,北,20.4,97,0,0,0,279
165,2021-08-16T02:44:00,1.1,北西,1.7,北,20.4,97.1,0,0,0,279
166,2021-08-16T02:45:00,1.1,北西,1.7,北,20.5,97.2,0,0,0,279
167,2021-08-16T02:46:00,1.2,北西,1.8,西北西,20.5,97.3,0,0,0,279
168,2021-08-16T02:47:00,1.2,北西,2.2,西北西,20.5,97.4,0,0,0,279
169,2021-08-16T02:48:00,1.3,北西,2.2,西北西,20.6,97.4,0,0,0,279
170,2021-08-16T02:49:00,1.4,西北西,2.4,北西,20.5,97.4,0,0,0,279
171,2021-08-16T02:50:00,1.4,西北西,2.4,北西,20.5,97.3,0,0,0,279
172,2021-08-16T02:51:00,1.5,西北西,2.4,北西,20.5,97.3,0,0,0,279
173,2021-08-16T02:52:00,1.5,西北西,2.4,北西,20.5,97.3,0,0,0,279
174,2021-08-16T02:53:00,1.6,西北西,2.4,北西,20.5,97.3,0,0,0,279
175,2021-08-16T02:54:00,1.6,西北西,2.4,北西,20.4,97.3,0,0,0,279
176,2021-08-16T02:55:00,1.6,西北西,2.4,北西,20.4,97.3,0,0,0,279
177,2021-08-16T02:56:00,1.6,西,2.4,北西,20.4,97.3,0,0,0,279
178,2021-08-16T02:57:00,1.6,西北西,2.4,北西,20.4,97.3,0,0,0,279
179,2021-08-16T02:58:00,1.6,西北西,2.4,北西,20.5,97.4,0,0,0,279
180,2021-08-16T02:59:00,1.5,西北西,2.4,西北西,20.4,97.4,0,0,0,279
181,2021-08-16T03:00:00,1.5,西北西,2.4,西北西,20.4,97.4,0,0,0,279
182,2021-08-16T03:01:00,1.5,西北西,2.4,西北西,20.5,97.4,0,0,0,279
183,2021-08-16T03:02:00,1.5,西北西,2.4,西北西,20.4,97.4,0,0,0,279
184,2021-08-16T03:03:00,1.5,北西,2.4,西北西,20.4,97.4,0,0,0,279
185,2021-08-16T03:04:00,1.5,北西,2.4,西北西,20.4,97.4,0,0,0,279
186,2021-08-16T03:05:00,1.5,北西,2.4,西北西,20.4,97.4,0,0,0,279
187,2021-08-16T03:06:00,1.5,北西,2.4,西北西,20.5,97.4,0,0,0,279
188,2021-08-16T03:07:00,1.5,北西,2.3,北西,20.5,97.5,0,0,0,279
189,2021-08-16T03:08:00,1.5,北西,2.3,北西,20.5,97.5,0,0,0,279
190,2021-08-16T03:09:00,1.6,北西,2.3,北西,20.4,97.4,0,0,0,279
191,2021-08-16T03:10:00,1.6,北西,2.3,北西,20.4,97.4,0,0,0,279
192,2021-08-16T03:11:00,1.6,北西,2.3,北西,20.4,97.3,0,0,0,279
193,2021-08-16T03:12:00,1.7,北西,2.3,北西,20.3,97.3,0,0,0,279
194,2021-08-16T03:13:00,1.7,北西,2.3,北西,20.3,97.3,0,0,0,279
195,2021-08-16T03:14:00,1.7,北西,2.3,北西,20.3,97.3,0,0,0,279
196,2021-08-16T03:15:00,1.8,北西,2.3,北西,20.3,97.4,0,0,0,279
197,2021-08-16T03:16:00,1.8,北西,2.3,北西,20.3,97.4,0,0,0,279
198,2021-08-16T03:17:00,1.7,北西,2.3,北北西,20.3,97.4,0,0,0,279
199,2021-08-16T03:18:00,1.7,北西,2.3,北北西,20.3,97.5,0,0,0,279
200,2021-08-16T03:19:00,1.7,北北西,2.3,北北西,20.3,97.5,0,0,0,279
201,2021-08-16T03:20:00,1.7,北北西,2.3,北北西,20.3,97.5,0,0,0,279
202,2021-08-16T03:21:00,1.6,北北西,2.3,北北西,20.3,97.6,0,0,0,279
203,2021-08-16T03:22:00,1.6,北北西,2.3,北北西,20.3,97.6,0,0,0,279
204,2021-08-16T03:23:00,1.4,北北西,2.3,北北西,20.3,97.6,0,0,0,279
205,2021-08-16T03:24:00,1.4,北北西,2.3,北北西,20.3,97.6,0,0,0,279
206,2021-08-16T03:25:00,1.3,北北西,2.3,北北西,20.4,97.6,0,0,0,279
207,2021-08-16T03:26:00,1.2,北西,2.1,北北西,20.3,97.6,0,0,0,279
208,2021-08-16T03:27:00,1.2,北西,2.1,北北西,20.3,97.6,0,0,0,279
209,2021-08-16T03:28:00,1.1,北西,2.1,北北西,20.3,97.6,0,0,0,279
210,2021-08-16T03:29:00,1.1,北北西,2,北北西,20.3,97.6,0,0,0,279
211,2021-08-16T03:30:00,1,北北西,2,北北西,20.3,97.6,0,0,0,279
212,2021-08-16T03:31:00,1,北北西,1.6,北北西,20.3,97.6,0,0,0,279
213,2021-08-16T03:32:00,1,北西,1.6,北北西,20.3,97.6,0,0,0,279
214,2021-08-16T03:33:00,1,北西,1.6,北北西,20.2,97.6,0,0,0,279
215,2021-08-16T03:34:00,1,北西,1.6,北北西,20.2,97.5,0,0,0,279
216,2021-08-16T03:35:00,1.1,北西,1.6,北北西,20.2,97.5,0,0,0,279
217,2021-08-16T03:36:00,1.1,北西,1.6,北北西,20.2,97.6,0,0,0,279
218,2021-08-16T03:37:00,1.1,北西,1.6,北北西,20.2,97.6,0,0,0,279
219,2021-08-16T03:38:00,1.1,北西,1.6,北北西,20.3,97.6,0,0,0,279
220,2021-08-16T03:39:00,1.1,北西,1.6,北北西,20.3,97.7,0,0,0,279
221,2021-08-16T03:40:00,1.2,北西,1.8,北北西,20.3,97.7,0,0,0,279
222,2021-08-16T03:41:00,1.2,北西,1.8,北北西,20.4,97.7,0,0,0,279
223,2021-08-16T03:42:00,1.2,北西,1.8,北北西,20.4,97.7,0,0,0,279
224,2021-08-16T03:43:00,1.2,北西,1.8,北北西,20.4,97.7,0,0,0,279
225,2021-08-16T03:44:00,1.2,北西,1.8,北北西,20.3,97.6,0,0,0,279
226,2021-08-16T03:45:00,1.2,北西,1.9,北西,20.3,97.6,0,0,0,279
227,2021-08-16T03:46:00,1.3,北西,1.9,北西,20.2,97.6,0,0,0,279
228,2021-08-16T03:47:00,1.3,西北西,1.9,北西,20.2,97.5,0,0,0,279
229,2021-08-16T03:48:00,1.3,西北西,2.1,西,20.2,97.5,0,0,0,279
230,2021-08-16T03:49:00,1.4,西北西,2.3,西,20.2,97.5,0,0,0,279
231,2021-08-16T03:50:00,1.4,西北西,2.3,西,20.1,97.5,0,0,0,279
232,2021-08-16T03:51:00,1.4,西北西,2.3,西,20.1,97.5,0,0,0,279
233,2021-08-16T03:52:00,1.5,西,2.4,西,20.1,97.6,0,0,0,279
234,2021-08-16T03:53:00,1.5,西北西,2.4,西,20.1,97.6,0,0,0,279
235,2021-08-16T03:54:00,1.5,西北西,2.4,西,20.1,97.6,0,0,0,279
236,2021-08-16T03:55:00,1.5,西北西,2.4,西,20.1,97.6,0,0,0,279
237,2021-08-16T03:56:00,1.6,西北西,3.1,北西,20.2,97.7,0,0,0,279
238,2021-08-16T03:57:00,1.7,西北西,3.1,北西,20.2,97.7,0,0,0,279
239,2021-08-16T03:58:00,1.7,西北西,3.1,北西,20.2,97.7,0,0,0,279
240,2021-08-16T03:59:00,1.6,北西,3.1,北西,20.3,97.7,0,0,0,279
241,2021-08-16T04:00:00,1.6,北西,3.1,北西,20.3,97.7,0,0,0,279
242,2021-08-16T04:01:00,1.6,北西,3.1,北西,20.2,97.7,0,0,0,279
243,2021-08-16T04:02:00,1.6,北西,3.1,北西,20.3,97.7,0,0,0,279
244,2021-08-16T04:03:00,1.5,北北西,3.1,北西,20.2,97.7,0,0,0,279
245,2021-08-16T04:04:00,1.5,北北西,3.1,北西,20.2,97.7,0,0,0,279
246,2021-08-16T04:05:00,1.3,北北西,3.1,北西,20.2,97.7,0,0,0,279
247,2021-08-16T04:06:00,1.1,北北西,2.8,北西,20.2,97.7,0,0,0,279
248,2021-08-16T04:07:00,1,北北西,2.3,北西,20.3,97.7,0,0,0,279
249,2021-08-16T04:08:00,0.9,北北西,2.1,北西,20.2,97.7,0,0,0,279
250,2021-08-16T04:09:00,0.8,北北西,2.1,北西,20.3,97.7,0,0,0,279
251,2021-08-16T04:10:00,0.8,北北西,2.1,北西,20.3,97.7,0,0,0,279
252,2021-08-16T04:11:00,0.6,北西,1.5,北西,20.2,97.6,0,0,0,279
253,2021-08-16T04:12:00,0.6,北西,1.4,北,20.2,97.6,0,0,0,279
254,2021-08-16T04:13:00,0.5,北西,1,北,20.2,97.6,0,0,0,279
255,2021-08-16T04:14:00,0.4,西北西,1,北,20.2,97.6,0,0,0,279
256,2021-08-16T04:15:00,0.4,西北西,1.2,西南西,20.1,97.6,0,0,0,279
257,2021-08-16T04:16:00,0.5,西,1.2,西南西,20.1,97.6,0,0,0,279
258,2021-08-16T04:17:00,0.5,西,1.2,西南西,20.1,97.6,0,0,0,279
259,2021-08-16T04:18:00,0.5,西,1.2,西南西,20.1,97.6,0,0,0,279
260,2021-08-16T04:19:00,0.6,西,1.2,西南西,20.2,97.7,0,0,0,279
261,2021-08-16T04:20:00,0.6,西,1.9,西北西,20.2,97.7,0,0,0,279
262,2021-08-16T04:21:00,0.8,西,2.3,北西,20.2,97.7,0,0,0,279
263,2021-08-16T04:22:00,0.9,西,2.5,西,20.2,97.7,0,0,0,279
264,2021-08-16T04:23:00,1,西,2.5,西,20.3,97.7,0,0,0,279
265,2021-08-16T04:24:00,1.2,西,2.5,西,20.2,97.7,0,0,0,279
266,2021-08-16T04:25:00,1.3,西,2.5,西,20.2,97.7,0,0,0,279
267,2021-08-16T04:26:00,1.4,西北西,2.5,西,20.2,97.6,0,0,0,279
268,2021-08-16T04:27:00,1.4,西北西,2.5,西,20.2,97.6,0,0,0,279
269,2021-08-16T04:28:00,1.5,西北西,2.5,西,20.2,97.6,0,0,0,279
270,2021-08-16T04:29:00,1.6,西北西,2.5,西,20.2,97.6,0,0,0,279
271,2021-08-16T04:30:00,1.5,西北西,2.5,西,20.3,97.6,0,0,0,279
272,2021-08-16T04:31:00,1.4,西北西,2.5,西,20.2,97.6,0,0,0,279
273,2021-08-16T04:32:00,1.3,西北西,2.5,西,20.2,97.6,0,0,0,279
274,2021-08-16T04:33:00,1.2,北西,2.5,西,20.2,97.6,0,0,0,279
275,2021-08-16T04:34:00,1.1,北西,2.5,西,20.2,97.6,0,0,0,279
276,2021-08-16T04:35:00,1,北西,2.4,西,20.2,97.6,0,0,0,279
277,2021-08-16T04:36:00,1,北北西,2.4,西,20.2,97.6,0,0,0,279
278,2021-08-16T04:37:00,1,北北西,2.4,西,20.2,97.6,0,0,0,279
279,2021-08-16T04:38:00,0.9,北北西,1.9,西,20.2,97.6,0,0,0,279
280,2021-08-16T04:39:00,0.9,北北西,1.5,北北西,20.2,97.6,0,0,0,279
281,2021-08-16T04:40:00,0.9,北北西,1.6,北北西,20.1,97.6,0,0,0,279
282,2021-08-16T04:41:00,1,北北西,1.6,北北西,20.1,97.6,0,0,0,279
283,2021-08-16T04:42:00,1,北北西,1.6,北北西,20.1,97.6,0,0,0,279
284,2021-08-16T04:43:00,1.1,北北西,1.6,北北西,20.1,97.7,0,0,0,279
285,2021-08-16T04:44:00,1.1,北北西,1.6,北北西,20.1,97.7,0,0,0,279
286,2021-08-16T04:45:00,1.1,北西,1.6,北北西,20.1,97.7,0,0,0,279
287,2021-08-16T04:46:00,1.1,北西,1.6,北北西,20.1,97.7,0,0,0,279
288,2021-08-16T04:47:00,1.1,北西,1.6,北北西,20.1,97.7,0,0,0,279
289,2021-08-16T04:48:00,1.1,北西,1.6,北北西,20.2,97.8,0,0,0,279
290,2021-08-16T04:49:00,1,北西,1.6,北北西,20.3,97.8,0,0,0,279
291,2021-08-16T04:50:00,0.9,北西,1.5,北西,20.3,97.9,0,0,0,279
292,2021-08-16T04:51:00,0.8,北西,1.5,北西,20.3,97.8,0,0,0,279
293,2021-08-16T04:52:00,0.8,北西,1.5,北西,20.3,97.8,0,0,0,279
294,2021-08-16T04:53:00,0.7,北西,1.5,北西,20.3,97.8,0,0,0,279
295,2021-08-16T04:54:00,0.6,北西,1.5,北西,20.3,97.8,0,0,0,279
296,2021-08-16T04:55:00,0.6,北西,1.3,北,20.3,97.8,0,0,0,279
297,2021-08-16T04:56:00,0.6,北西,1.3,北,20.3,97.8,0,0,0,279
298,2021-08-16T04:57:00,0.6,北西,1.2,北西,20.3,97.7,0,0,0,279
299,2021-08-16T04:58:00,0.7,西北西,1.5,西北西,20.3,97.7,0,0,0,279
300,2021-08-16T04:59:00,0.8,西北西,2.6,西北西,20.3,97.7,0,0,0,279
301,2021-08-16T05:00:00,1,西北西,2.6,西北西,20.4,97.7,0,0,0,279
302,2021-08-16T05:01:00,1.1,西北西,2.6,西北西,20.4,97.7,0,0,0,279
303,2021-08-16T05:02:00,1.2,西北西,2.6,西北西,20.4,97.7,0,0,0,279
304,2021-08-16T05:03:00,1.3,西北西,2.6,西北西,20.5,97.7,0,0,0,279
305,2021-08-16T05:04:00,1.4,西北西,2.6,西北西,20.5,97.7,0,0,0,279
306,2021-08-16T05:05:00,1.4,西北西,2.6,西北西,20.4,97.6,0,0,0,279
307,2021-08-16T05:06:00,1.5,西北西,2.6,西北西,20.4,97.6,0,0,0,279
308,2021-08-16T05:07:00,1.5,西北西,2.6,西北西,20.4,97.4,0,0,0,279
309,2021-08-16T05:08:00,1.5,西北西,2.6,西北西,20.4,97.4,0,0,0,279
310,2021-08-16T05:09:00,1.5,西北西,2.6,西,20.4,97.4,0,0,0,279
311,2021-08-16T05:10:00,1.5,西北西,2.6,西,20.4,97.4,0,0,0,279
312,2021-08-16T05:11:00,1.4,西北西,2.6,西,20.4,97.3,0,0,0,279
313,2021-08-16T05:12:00,1.5,西北西,2.6,西,20.4,97.3,0,0,0,279
314,2021-08-16T05:13:00,1.5,西北西,2.6,西,20.4,97.3,0,0,0,279
315,2021-08-16T05:14:00,1.5,西北西,2.6,西,20.4,97.3,0,0,0,279
316,2021-08-16T05:15:00,1.6,西北西,2.6,西,20.4,97.3,0,0,0,279
317,2021-08-16T05:16:00,1.5,西北西,2.4,北西,20.3,97.3,0,0,0,279
318,2021-08-16T05:17:00,1.5,西北西,2.4,北西,20.4,97.3,0,0,0,279
319,2021-08-16T05:18:00,1.5,西北西,2.4,北西,20.4,97.3,0,0,0,279
320,2021-08-16T05:19:00,1.4,西北西,2.4,北西,20.4,97.3,0,0,0,279
321,2021-08-16T05:20:00,1.4,西北西,2.4,北西,20.4,97.3,0,0,0,279
322,2021-08-16T05:21:00,1.3,西北西,2.4,北西,20.4,97.3,0,0,0,279
323,2021-08-16T05:22:00,1.3,西北西,2.4,北西,20.4,97.3,0,0,0,279
324,2021-08-16T05:23:00,1.2,西北西,2.1,西,20.5,97.3,0,0,0,279
325,2021-08-16T05:24:00,1.2,西北西,1.9,北北西,20.5,97.3,0,0,0,279
326,2021-08-16T05:25:00,1.2,西北西,1.9,北北西,20.5,97.3,0,0,0,279
327,2021-08-16T05:26:00,1.2,西北西,2.2,西北西,20.5,97.3,0,0,0,279
328,2021-08-16T05:27:00,1.3,西北西,2.6,西,20.5,97.1,0,0,0,279
329,2021-08-16T05:28:00,1.4,西北西,2.8,西北西,20.4,97,0,0,0,279
330,2021-08-16T05:29:00,1.5,西北西,2.8,西北西,20.4,96.9,0,0,0,279
331,2021-08-16T05:30:00,1.6,西北西,2.8,西北西,20.4,96.9,0,0,0,279
332,2021-08-16T05:31:00,1.7,西北西,4.1,西北西,20.4,96.9,0,0,0,279
333,2021-08-16T05:32:00,1.8,西北西,4.1,西北西,20.4,96.9,0,0,0,279
334,2021-08-16T05:33:00,1.8,西北西,4.1,西北西,20.4,96.9,0,0,0,279
335,2021-08-16T05:34:00,1.8,西北西,4.1,西北西,20.4,96.9,0,0,0,279
336,2021-08-16T05:35:00,1.9,西,4.1,西北西,20.4,96.9,0,0,0,279
337,2021-08-16T05:36:00,1.9,西,4.1,西北西,20.4,96.9,0,0,0,279
338,2021-08-16T05:37:00,1.9,西,4.1,西北西,20.4,96.9,0,0,0,279
339,2021-08-16T05:38:00,1.8,西,4.1,西北西,20.4,96.9,0,0,0,279
340,2021-08-16T05:39:00,1.8,西,4.1,西北西,20.4,96.9,0,0,0,279
341,2021-08-16T05:40:00,1.8,西,4.1,西北西,20.4,97,0,0,0,279
342,2021-08-16T05:41:00,1.7,西,2.8,西,20.5,97,0,0,0,279
343,2021-08-16T05:42:00,1.5,西北西,2.8,西,20.5,97.1,0,0,0,279
344,2021-08-16T05:43:00,1.5,西北西,2.8,西,20.6,97.2,0,0,0,279
345,2021-08-16T05:44:00,1.5,西北西,2.8,西,20.5,97.1,0,0,0,279
346,2021-08-16T05:45:00,1.4,西北西,2.8,西,20.5,97.1,0,0,0,279
347,2021-08-16T05:46:00,1.3,西北西,2.2,西北西,20.5,97.1,0,0,0,279
348,2021-08-16T05:47:00,1.2,西北西,2.2,西北西,20.5,97.1,0,0,0,279
349,2021-08-16T05:48:00,1.2,西北西,2.2,西北西,20.5,97.1,0,0,0,279
350,2021-08-16T05:49:00,1.1,西北西,1.9,西,20.4,97.1,0,0,0,279
351,2021-08-16T05:50:00,1,西北西,1.5,北西,20.4,97.2,0,0,0,279
352,2021-08-16T05:51:00,1,西北西,1.4,西,20.4,97.2,0,0,0,279
353,2021-08-16T05:52:00,1,西北西,1.5,西,20.4,97.3,0,0,0,279
354,2021-08-16T05:53:00,1,西北西,1.6,西北西,20.5,97.3,0,0,0,279
355,2021-08-16T05:54:00,1,西北西,1.9,西北西,20.5,97.4,0,0,0,279
356,2021-08-16T05:55:00,1.1,西北西,1.9,西北西,20.5,97.5,0,0,0,279
357,2021-08-16T05:56:00,1.1,西,1.9,西北西,20.5,97.5,0,0,0,279
358,2021-08-16T05:57:00,1.2,西,1.9,西北西,20.5,97.4,0,0,0,279
359,2021-08-16T05:58:00,1.3,西北西,1.9,西北西,20.5,97.4,0,0,0,279
360,2021-08-16T05:59:00,1.4,西北西,2,西,20.5,97.4,0,0,0,279
361,2021-08-16T06:00:00,1.4,西,2.1,西北西,20.5,97.3,0,0,0,279
362,2021-08-16T06:01:00,1.5,西,2.8,西北西,20.4,97.3,0,0,0,279
363,2021-08-16T06:02:00,1.5,西北西,2.8,西北西,20.5,97.2,0,0,0,279
364,2021-08-16T06:03:00,1.6,西北西,2.8,西北西,20.4,97.2,0,0,0,279
365,2021-08-16T06:04:00,1.7,西北西,3.2,西,20.5,97.2,0,0,0,279
366,2021-08-16T06:05:00,1.8,西,3.2,西,20.5,97.2,0,0,0,279
367,2021-08-16T06:06:00,1.8,西,3.2,西,20.5,97.1,0,0,0,279
368,2021-08-16T06:07:00,1.9,西,3.3,西北西,20.5,97.1,0,0,0,279
369,2021-08-16T06:08:00,2,西,3.3,西北西,20.5,97.1,0,0,0,279
370,2021-08-16T06:09:00,2,西,3.3,西北西,20.5,97.1,0,0,0,279
371,2021-08-16T06:10:00,2,西,3.3,西北西,20.5,97,0,0,0,279
372,2021-08-16T06:11:00,2.1,西,3.3,西北西,20.6,97,0,0,0,279
373,2021-08-16T06:12:00,2,西,3.3,西北西,20.6,97,0,0,0,279
374,2021-08-16T06:13:00,1.9,西,3.3,西北西,20.6,97,0,0,0,279
375,2021-08-16T06:14:00,1.8,西,3.3,西北西,20.6,97,0,0,0,279
376,2021-08-16T06:15:00,1.8,西,3.3,西北西,20.7,97,0,0,0,279
377,2021-08-16T06:16:00,1.7,西,3.3,西北西,20.7,97.1,0,0,0,279
378,2021-08-16T06:17:00,1.6,西,2.5,西,20.7,97,0,0,0,279
379,2021-08-16T06:18:00,1.5,西,2.5,西,20.7,97,0,0,0,279
380,2021-08-16T06:19:00,1.5,西,2.9,西北西,20.7,96.9,0,0,0,279
381,2021-08-16T06:20:00,1.6,西北西,2.9,西北西,20.7,96.8,0,0,0,279
382,2021-08-16T06:21:00,1.6,西北西,2.9,西北西,20.7,96.7,0,0,0,279
383,2021-08-16T06:22:00,1.6,西北西,2.9,西北西,20.8,96.7,0,0,0,279
384,2021-08-16T06:23:00,1.7,西北西,2.9,西北西,20.8,96.6,0,0,0,279
385,2021-08-16T06:24:00,1.7,西北西,2.9,西北西,20.8,96.5,0,0,0,279
386,2021-08-16T06:25:00,1.7,西北西,2.9,西北西,20.8,96.5,0,0,0,279
387,2021-08-16T06:26:00,1.7,西北西,2.9,西北西,20.8,96.4,0,0,0,279
388,2021-08-16T06:27:00,1.8,西北西,2.9,西北西,20.8,96.4,0,0,0,279
389,2021-08-16T06:28:00,1.9,西北西,2.9,西北西,20.8,96.3,0,0,0,279
390,2021-08-16T06:29:00,1.9,西北西,2.9,西北西,20.8,96.3,0,0,0,279
391,2021-08-16T06:30:00,1.8,西北西,2.9,西北西,20.8,96.3,0,0,0,279
392,2021-08-16T06:31:00,1.8,西北西,2.9,西北西,20.8,96.2,0,0,0,279
393,2021-08-16T06:32:00,1.7,西北西,2.9,西北西,20.8,96.2,0,0,0,279
394,2021-08-16T06:33:00,1.7,西北西,2.9,西北西,20.9,96.2,0,0,0,279
395,2021-08-16T06:34:00,1.7,西北西,2.9,西北西,20.9,96.2,0,0,0,279
396,2021-08-16T06:35:00,1.5,西北西,2.9,西北西,21,96.2,0,0,0,279
397,2021-08-16T06:36:00,1.4,西北西,2.9,西北西,21,96.2,0,0,0,279
398,2021-08-16T06:37:00,1.3,西北西,2.8,西北西,21.1,96.2,0,0,0,279
399,2021-08-16T06:38:00,1.1,西北西,2.5,西北西,21.1,96.1,0,0,0,279
400,2021-08-16T06:39:00,1,西北西,2.3,北西,21,96,0,0,0,279
401,2021-08-16T06:40:00,1,西北西,2.1,西北西,21,95.8,0,0,0,279
402,2021-08-16T06:41:00,1,西北西,2.6,西,20.9,95.8,0,0,0,279
403,2021-08-16T06:42:00,1.1,西北西,2.6,西,20.9,95.8,0,0,0,279
404,2021-08-16T06:43:00,1.2,西北西,2.6,西,20.9,95.8,0,0,0,279
405,2021-08-16T06:44:00,1.3,西北西,2.8,西北西,20.9,95.8,0,0,0,279
406,2021-08-16T06:45:00,1.5,西北西,2.8,西北西,20.9,95.8,0,0,0,279
407,2021-08-16T06:46:00,1.6,西北西,2.8,西北西,20.9,95.8,0,0,0,279
408,2021-08-16T06:47:00,1.6,西北西,2.8,西北西,21,95.8,0,0,0,279
409,2021-08-16T06:48:00,1.8,西北西,3,西北西,21,95.8,0,0,0,279
410,2021-08-16T06:49:00,1.9,西北西,3,西北西,21,95.7,0,0,0,279
411,2021-08-16T06:50:00,1.9,西北西,3,西北西,21,95.6,0,0,0,279
412,2021-08-16T06:51:00,2,西北西,3,西北西,21,95.6,0,0,0,279